Weather History for Jackson, KY

Change the Weather History Date:

Sunday, October 21, 2012

  Actual Average Record
Temperature  
Mean Temperature 55 °F 57 °F  
Max Temperature 68 °F 67 °F 83 °F (2007)
Min Temperature 42 °F 47 °F 33 °F (2006)
Degree Days  
Heating Degree Days 10 9  
Month to date heating degree days 178 142  
Since 1 July heating degree days 240 194  
Cooling Degree Days 0 1  
Month to date cooling degree days 12 27  
Year to date cooling degree days 1306 1148  
Growing Degree Days 4 (Base 50)    
Moisture  
Dew Point 42 °F    
Average Humidity 69    
Maximum Humidity 96    
Minimum Humidity 42    
Precipitation  
Precipitation 0.00 in 0.10 in 1.87 in (1985)
Month to date precipitation 1.78 2.09  
Year to date precipitation 42.30 39.10  
Snow  
Snow 0.00 in 0.00 in - ()
Month to date snowfall 0.0 0.0  
Since 1 July snowfall 0.0 0.0  
Since 1 September snowfall 0.0 0.0  
Snow Depth 0.00 in    
Sea Level Pressure  
Sea Level Pressure 30.12 in    
Wind  
Wind Speed 1 mph (South)    
Max Wind Speed 6 mph    
Max Gust Speed 10 mph    
Visibility 10 miles    
Events      
T = Trace of Precipitation, MM = Missing Value Source: NWS Daily Summary

Daily Weather History Graph

Daily Weather History Graph

Search for Another Location

Airport:

Trip Planner

Search our weather history database for the weather conditions in past years. The results will help you decide how hot, cold, wet, or windy it might be!

Date:

Astronomy

Oct. 21, 2012 Rise Set
Actual Time 7:47 AM EDT 6:47 PM EDT
Civil Twilight 7:21 AM EDT 7:13 PM EDT
Nautical Twilight 6:50 AM EDT 7:44 PM EDT
Astronomical Twilight 6:20 AM EDT 8:14 PM EDT
Moon 2:05 PM EDT (10/21) No Moon Set
Length of Visible Light 11h 52m
Length of Day
10h 59m
Waxing Crescent, 45% of the Moon is Illuminated
Oct 21
Waxing Crescent
Oct 21
First Quarter
Oct 29
Full
Nov 6
Last Quarter
Nov 13
New

Hourly Weather History & Observations

Time (EDT) Temp. Windchill Dew Point Humidity Pressure Visibility Wind Dir Wind Speed Gust Speed Precip Events Conditions
12:53 AM 46.9 °F - 41.0 °F 80% 30.03 in 10.0 mi Calm Calm - N/A   Overcast
1:53 AM 48.0 °F - 41.0 °F 77% 30.04 in 10.0 mi Calm Calm - N/A   Overcast
2:53 AM 46.9 °F - 42.1 °F 83% 30.05 in 10.0 mi Calm Calm - N/A   Overcast
3:53 AM 46.9 °F - 41.0 °F 80% 30.07 in 10.0 mi Calm Calm - N/A   Overcast
4:53 AM 45.0 °F 43.5 °F 41.0 °F 86% 30.08 in 10.0 mi South 3.5 mph - N/A   Partly Cloudy
5:53 AM 44.1 °F - 41.0 °F 89% 30.10 in 10.0 mi Calm Calm - N/A   Overcast
6:53 AM 44.1 °F - 42.1 °F 93% 30.13 in 10.0 mi Calm Calm - N/A   Overcast
7:53 AM 43.0 °F - 41.0 °F 93% 30.14 in 10.0 mi Calm Calm - N/A   Scattered Clouds
8:53 AM 44.1 °F - 42.1 °F 93% 30.16 in 10.0 mi Calm Calm - N/A   Clear
9:53 AM 48.0 °F - 43.0 °F 83% 30.18 in 10.0 mi Calm Calm - N/A   Mostly Cloudy
10:53 AM 53.1 °F - 44.1 °F 71% 30.17 in 10.0 mi Variable 3.5 mph - N/A   Clear
11:53 AM 57.9 °F - 43.0 °F 58% 30.17 in 10.0 mi Calm Calm - N/A   Clear
12:53 PM 61.0 °F - 43.0 °F 52% 30.16 in 10.0 mi Calm Calm - N/A   Clear
1:53 PM 61.0 °F - 42.1 °F 50% 30.14 in 10.0 mi Calm Calm - N/A   Clear
2:53 PM 64.9 °F - 44.1 °F 47% 30.12 in 10.0 mi Calm Calm - N/A   Clear
3:53 PM 66.0 °F - 43.0 °F 43% 30.11 in 10.0 mi Calm Calm - N/A   Clear
4:53 PM 66.0 °F - 43.0 °F 43% 30.11 in 10.0 mi SSE 3.5 mph - N/A   Clear
5:53 PM 64.9 °F - 44.1 °F 47% 30.11 in 10.0 mi WSW 3.5 mph - N/A   Clear
6:53 PM 64.0 °F - 42.1 °F 45% 30.12 in 10.0 mi Calm Calm - N/A   Clear
7:53 PM 62.1 °F - 42.1 °F 48% 30.12 in 10.0 mi Calm Calm - N/A   Clear
8:53 PM 61.0 °F - 43.0 °F 52% 30.13 in 10.0 mi Calm Calm - N/A   Clear
9:53 PM 59.0 °F - 43.0 °F 55% 30.14 in 10.0 mi SSE 3.5 mph - N/A   Clear
10:53 PM 55.9 °F - 43.0 °F 62% 30.13 in 10.0 mi SSE 3.5 mph - N/A   Clear
11:53 PM 55.0 °F - 43.0 °F 64% 30.13 in 10.0 mi SSE 3.5 mph - N/A   Clear